Flag for U.S.A. Weather past 2 weeks in Providence, Rhode Island, U.S.A.

55 °F


Feels Like: 55 °F
Forecast: 50 / 70 °F
Wind: No wind

Location: Green State Airport

Current Time: Oct 8, 2015 at 11:53:35 PM

Latest Report: Oct 8, 2015 at 10:51 PM

Visibility: 10 mi

Pressure: 30.14 "Hg

Humidity: 80%

Dew point: 49 °F

Location of ProvidenceLocation

Historic Weather in Providence — Graph


Providence temperature yesterday

Maximum temperature yesterday: 71 °F (at 2:51 PM)
Minimum temperature yesterday: 47 °F (at 5:51 AM)
Average temperature yesterday: 60 °F

Past Weeks' High & Low Weather Summary

High80 °F (Sep 29, 12:51 PM)100% (Sep 29, 3:01 AM)30.52 "Hg (Sep 29, 3:01 AM)
Low43 °F (Sep 27, 6:51 AM)39% (Sep 24, 2:51 PM)29.68 "Hg (Sep 30, 2:51 PM)
Average59 °F75%30.20 "Hg
* Reported Sep 23 9:51 PM — Oct 8 9:51 PM, Providence, Weather by CustomWeather, © 2015

Note: Actual official high and low records may vary slightly from our data, if they occured in-between our weather recording intervals... More about our weather records


Providence weather history for previous 24 hours

Time TempWeatherWind HumidityBarometerVisibility
9:51 PM
Thu, Oct 8
57 °FOvercast.3 mph74%30.15 "Hg10 mi
8:51 PM56 °FPassing clouds.5 mph77%30.14 "Hg10 mi
7:51 PM56 °FPassing clouds.5 mph75%30.13 "Hg10 mi
6:51 PM58 °FPassing clouds.7 mph67%30.12 "Hg10 mi
5:51 PM62 °FPassing clouds.12 mph58%30.11 "Hg10 mi
4:51 PM64 °FScattered clouds.9 mph52%30.11 "Hg10 mi
3:51 PM67 °FScattered clouds.8 mph41%30.10 "Hg10 mi
2:51 PM65 °FScattered clouds.No wind44%30.10 "Hg10 mi
1:51 PM68 °FScattered clouds.9 mph40%30.12 "Hg10 mi
12:51 PM66 °FPassing clouds.7 mph42%30.13 "Hg10 mi
11:51 AM64 °FPassing clouds.7 mph47%30.15 "Hg10 mi
10:51 AM63 °FScattered clouds.12 mph50%30.15 "Hg10 mi
9:51 AM61 °FScattered clouds.10 mph56%30.15 "Hg10 mi
8:51 AM59 °FPassing clouds.12 mph64%30.14 "Hg10 mi
7:51 AM54 °FPassing clouds.9 mph74%30.12 "Hg10 mi
6:51 AM52 °FPassing clouds.9 mph80%30.10 "Hg10 mi
5:51 AM54 °FPassing clouds.8 mph77%30.08 "Hg10 mi
4:51 AM55 °FClear.7 mph77%30.06 "Hg10 mi
2:51 AM56 °FClear.3 mph77%30.03 "Hg10 mi
1:51 AM59 °FClear.7 mph69%30.03 "Hg10 mi
12:51 AM57 °FClear.No wind74%30.01 "Hg10 mi
11:51 PM
Wed, Oct 7
58 °FPassing clouds.3 mph75%30.01 "Hg10 mi
Weather by CustomWeather, © 2015

See weather overviewHow to use our weather pages